contact:dominique.lefevre@mio.osupytheas.fr, maurice.libes@osupytheas.fr, didier.mallarino@osupytheas.fr
Project:EMSO http://www.emso-fr.org/EMSO-France
Depth: 2436.0 m
Title:EMSO Ligure Ouest : Data MII capteur AQUADOPP
Date,Latitude,Longitude,X_East,Y_North,Z_Up,Amplitude_X,Amplitude_Y,Amplitude_Z,Batterie,SoundSpeed,Heading,Pitch,Roll,Pressure,TIS,Speed,Direction
, degrees North, degrees East, m.s-1, m.s-1,m.s-1, 1, 1, 1, Volt, m.s-1, degree, degree, degree, dbar, degree_C, m.s-1, degree
2019-06-11T00:09:04,42.805,6.029,0.034,-0.005,-0.019,101.0,108.0,97.0,13.3,1505.2,327.4,-0.8,1.9,2470.207,13.29,0.034,98.4
2019-06-11T00:12:05,42.805,6.029,0.049,-0.016,-0.016,100.0,107.0,97.0,13.3,1505.2,324.4,-0.8,1.9,2470.203,13.3,0.051,108.1
2019-06-11T00:15:06,42.805,6.029,0.007,0.019,-0.03,102.0,108.0,98.0,13.4,1505.3,327.1,-0.7,1.8,2470.124,13.31,0.02,20.2
2019-06-11T00:18:07,42.805,6.029,0.025,-0.015,-0.03,101.0,108.0,98.0,13.4,1505.3,326.5,-0.7,1.9,2470.131,13.31,0.029,121.0
2019-06-11T00:21:08,42.805,6.029,0.017,0.006,-0.012,101.0,108.0,99.0,13.4,1505.3,326.2,-0.7,1.8,2470.149,13.31,0.018,70.6
2019-06-11T00:24:09,42.805,6.029,0.046,-0.002,-0.026,101.0,107.0,97.0,13.4,1505.3,328.2,-0.7,1.8,2470.159,13.32,0.046,92.5
2019-06-11T00:27:10,42.805,6.029,0.026,0.003,-0.019,101.0,108.0,97.0,13.3,1505.3,323.2,-0.7,1.9,2470.151,13.32,0.026,83.4
2019-06-11T00:30:11,42.805,6.029,0.014,0.006,-0.024,101.0,108.0,100.0,13.4,1505.3,324.7,-0.7,1.8,2470.164,13.32,0.015,66.8
2019-06-11T00:33:12,42.805,6.029,0.05,0.0,-0.039,101.0,108.0,98.0,13.3,1505.3,328.3,-0.7,1.8,2470.167,13.32,0.05,90.0
2019-06-11T00:36:13,42.805,6.029,0.016,-0.003,-0.046,101.0,109.0,98.0,13.4,1505.3,324.7,-0.7,1.9,2470.086,13.32,0.016,100.6
2019-06-11T00:39:14,42.805,6.029,0.036,0.015,-0.021,102.0,107.0,97.0,13.3,1505.3,324.7,-0.8,1.8,2470.162,13.32,0.039,67.4
2019-06-11T00:42:15,42.805,6.029,0.033,-0.006,-0.05,102.0,110.0,97.0,13.4,1505.3,325.3,-0.8,1.8,2470.159,13.32,0.033,100.3
2019-06-11T00:45:16,42.805,6.029,0.033,-0.01,-0.016,100.0,108.0,98.0,13.3,1505.3,324.3,-0.8,1.9,2470.143,13.32,0.034,106.9
2019-06-11T00:48:17,42.805,6.029,0.057,0.006,-0.038,100.0,110.0,98.0,13.4,1505.3,324.8,-0.7,1.9,2470.162,13.32,0.057,84.0
2019-06-11T00:51:18,42.805,6.029,0.042,0.005,-0.017,100.0,110.0,98.0,13.4,1505.3,327.7,-0.7,1.8,2470.082,13.32,0.042,83.2
2019-06-11T00:54:19,42.805,6.029,0.021,-0.002,-0.034,102.0,107.0,98.0,13.4,1505.3,323.0,-0.7,1.9,2470.138,13.32,0.021,95.4
2019-06-11T00:57:20,42.805,6.029,0.055,-0.003,-0.015,101.0,108.0,98.0,13.3,1505.3,325.9,-0.7,1.8,2470.14,13.32,0.055,93.1
2019-06-11T01:00:21,42.805,6.029,0.051,0.001,-0.015,100.0,107.0,99.0,13.4,1505.3,325.2,-0.8,1.8,2470.132,13.32,0.051,88.9
2019-06-11T01:03:22,42.805,6.029,0.042,-0.013,0.0,102.0,110.0,98.0,13.4,1505.3,327.6,-0.7,1.9,2470.133,13.32,0.043,107.2
2019-06-11T01:06:23,42.805,6.029,0.034,0.01,-0.015,102.0,109.0,97.0,13.4,1505.3,326.4,-0.7,1.8,2470.095,13.32,0.035,73.6
2019-06-11T01:09:24,42.805,6.029,0.061,0.004,-0.019,101.0,105.0,98.0,13.4,1505.3,324.4,-0.7,1.9,2470.154,13.32,0.061,86.3
2019-06-11T01:12:25,42.805,6.029,0.031,0.007,-0.037,101.0,105.0,97.0,13.4,1505.3,328.1,-0.7,1.9,2470.187,13.32,0.031,77.3
2019-06-11T01:15:26,42.805,6.029,0.045,0.01,-0.028,101.0,107.0,99.0,13.4,1505.3,324.7,-0.7,1.8,2470.118,13.32,0.046,77.5
2019-06-11T01:18:27,42.805,6.029,0.039,-0.006,-0.06,103.0,110.0,97.0,13.3,1505.3,324.1,-0.8,1.8,2470.168,13.32,0.039,98.7
2019-06-11T01:21:28,42.805,6.029,0.019,-0.001,-0.018,101.0,109.0,98.0,13.4,1505.3,327.3,-0.8,1.8,2470.147,13.32,0.019,93.0
2019-06-11T01:24:29,42.805,6.029,0.04,0.009,-0.04,101.0,108.0,98.0,13.4,1505.3,326.1,-0.7,1.8,2470.167,13.32,0.041,77.3
2019-06-11T01:27:30,42.805,6.029,0.039,-0.001,-0.01,103.0,107.0,98.0,13.4,1505.3,325.8,-0.8,1.8,2470.139,13.32,0.039,91.5
2019-06-11T01:30:31,42.805,6.029,0.016,0.007,-0.011,102.0,110.0,98.0,13.3,1505.3,324.7,-0.7,1.8,2470.127,13.32,0.017,66.4
2019-06-11T01:33:32,42.805,6.029,0.03,0.005,-0.023,101.0,109.0,99.0,13.3,1505.3,325.1,-0.8,1.8,2470.101,13.32,0.03,80.5
2019-06-11T01:36:33,42.805,6.029,0.023,-0.032,-0.013,101.0,106.0,99.0,13.4,1505.3,327.4,-0.8,1.8,2470.152,13.32,0.039,144.3
2019-06-11T01:39:34,42.805,6.029,0.021,-0.002,-0.025,102.0,109.0,97.0,13.4,1505.3,323.8,-0.7,1.8,2470.137,13.32,0.021,95.4
2019-06-11T01:42:35,42.805,6.029,0.062,-0.009,0.004,102.0,108.0,98.0,13.3,1505.3,326.6,-0.8,1.9,2470.122,13.32,0.062,98.3
2019-06-11T01:45:36,42.805,6.029,0.035,-0.005,0.001,101.0,109.0,98.0,13.4,1505.3,327.2,-0.7,1.8,2470.12,13.32,0.035,98.1
2019-06-11T01:48:37,42.805,6.029,0.056,0.003,0.02,101.0,109.0,97.0,13.3,1505.3,323.3,-0.7,1.9,2470.128,13.32,0.056,86.9
2019-06-11T01:51:38,42.805,6.029,0.039,0.011,-0.008,103.0,110.0,97.0,13.3,1505.3,324.5,-0.7,1.8,2470.096,13.32,0.04,74.3
2019-06-11T01:54:39,42.805,6.029,0.056,0.007,-0.004,103.0,111.0,97.0,13.4,1505.3,326.2,-0.7,1.9,2470.166,13.32,0.056,82.9
2019-06-11T01:57:40,42.805,6.029,0.055,0.006,0.027,101.0,109.0,98.0,13.4,1505.3,326.5,-0.7,1.9,2470.093,13.32,0.055,83.8
2019-06-11T02:00:41,42.805,6.029,0.039,0.001,-0.021,101.0,109.0,98.0,13.4,1505.3,325.3,-0.7,1.8,2470.152,13.32,0.039,88.5
2019-06-11T02:03:42,42.805,6.029,0.055,0.003,-0.019,101.0,110.0,98.0,13.4,1505.3,327.7,-0.8,1.8,2470.18,13.32,0.055,86.9
2019-06-11T02:06:43,42.805,6.029,0.056,0.0,-0.002,101.0,109.0,98.0,13.4,1505.3,325.6,-0.7,1.8,2470.132,13.32,0.056,90.0
2019-06-11T02:09:44,42.805,6.029,0.038,-0.01,-0.015,104.0,109.0,97.0,13.4,1505.3,325.8,-0.8,1.8,2470.122,13.32,0.039,104.7
2019-06-11T02:12:45,42.805,6.029,0.008,-0.013,-0.053,101.0,110.0,97.0,13.4,1505.3,326.9,-0.8,1.8,2470.162,13.32,0.015,148.4
2019-06-11T02:15:46,42.805,6.029,0.036,-0.001,0.001,100.0,110.0,99.0,13.4,1505.3,325.3,-0.7,1.8,2470.119,13.32,0.036,91.6
2019-06-11T02:18:47,42.805,6.029,0.033,0.006,-0.048,102.0,110.0,98.0,13.4,1505.3,325.9,-0.7,1.8,2470.156,13.32,0.033,79.7
2019-06-11T02:21:48,42.805,6.029,0.034,0.006,-0.032,100.0,108.0,98.0,13.4,1505.3,323.0,-0.7,1.9,2470.169,13.32,0.034,80.0
2019-06-11T02:24:49,42.805,6.029,0.039,0.009,-0.014,102.0,109.0,98.0,13.3,1505.3,326.0,-0.7,1.8,2470.152,13.32,0.04,77.0
2019-06-11T02:27:50,42.805,6.029,0.047,0.004,0.008,101.0,111.0,97.0,13.4,1505.3,327.2,-0.7,1.8,2470.211,13.32,0.047,85.1
2019-06-11T02:30:51,42.805,6.029,0.043,0.007,-0.009,101.0,108.0,96.0,13.4,1505.3,327.0,-0.7,1.8,2470.172,13.32,0.043,80.8
2019-06-11T02:33:52,42.805,6.029,0.021,0.022,-0.02,100.0,109.0,97.0,13.4,1505.3,323.0,-0.7,1.8,2470.149,13.32,0.03,43.7
2019-06-11T02:36:53,42.805,6.029,0.06,-0.013,-0.009,101.0,109.0,98.0,13.4,1505.3,326.0,-0.7,1.9,2470.179,13.32,0.061,102.2
2019-06-11T02:39:54,42.805,6.029,0.036,-0.003,-0.029,101.0,108.0,98.0,13.4,1505.3,324.1,-0.7,1.9,2470.109,13.32,0.036,94.8
2019-06-11T02:42:55,42.805,6.029,0.033,-0.016,-0.044,102.0,108.0,98.0,13.3,1505.3,324.8,-0.7,1.9,2470.116,13.32,0.036,115.9
2019-06-11T02:45:56,42.805,6.029,0.042,-0.01,-0.028,101.0,110.0,98.0,13.3,1505.3,324.2,-0.8,1.9,2470.173,13.32,0.043,103.4
2019-06-11T02:48:57,42.805,6.029,0.059,-0.006,0.006,104.0,112.0,96.0,13.3,1505.3,328.6,-0.8,1.8,2470.132,13.32,0.059,95.8
2019-06-11T02:51:58,42.805,6.029,0.023,0.002,-0.034,101.0,110.0,99.0,13.4,1505.3,324.1,-0.8,1.8,2470.1,13.32,0.023,85.0
2019-06-11T02:54:59,42.805,6.029,0.013,0.002,0.013,102.0,111.0,98.0,13.3,1505.3,326.4,-0.7,1.8,2470.157,13.32,0.013,81.3
2019-06-11T02:58:00,42.805,6.029,0.059,0.014,-0.024,101.0,106.0,98.0,13.3,1505.3,325.6,-0.7,1.8,2470.088,13.32,0.06,76.7
2019-06-11T03:01:01,42.805,6.029,0.042,-0.008,-0.032,103.0,108.0,98.0,13.3,1505.3,328.4,-0.7,1.9,2470.092,13.32,0.042,100.8
2019-06-11T03:04:02,42.805,6.029,0.035,0.03,-0.003,101.0,109.0,99.0,13.4,1505.3,324.7,-0.7,1.8,2470.155,13.32,0.046,49.4
2019-06-11T03:07:03,42.805,6.029,0.043,0.0,-0.036,101.0,107.0,99.0,13.3,1505.3,326.4,-0.8,1.9,2470.108,13.32,0.043,90.0
2019-06-11T03:10:04,42.805,6.029,0.044,-0.002,-0.031,100.0,108.0,99.0,13.4,1505.3,323.9,-0.7,1.8,2470.097,13.32,0.044,92.6
2019-06-11T03:13:05,42.805,6.029,0.047,0.015,0.007,102.0,109.0,98.0,13.4,1505.3,325.9,-0.7,1.9,2470.099,13.32,0.049,72.3
2019-06-11T03:16:06,42.805,6.029,0.051,0.006,-0.035,101.0,108.0,98.0,13.4,1505.3,325.9,-0.8,1.9,2470.162,13.32,0.051,83.3
2019-06-11T03:19:07,42.805,6.029,0.041,0.007,-0.001,103.0,110.0,99.0,13.4,1505.3,324.7,-0.7,1.8,2470.143,13.32,0.041,80.3
2019-06-11T03:22:08,42.805,6.029,0.049,0.0,-0.021,99.0,107.0,98.0,13.3,1505.3,326.9,-0.8,1.9,2470.138,13.32,0.049,90.0
2019-06-11T03:25:09,42.805,6.029,0.035,-0.013,-0.009,100.0,106.0,99.0,13.4,1505.3,326.3,-0.8,1.9,2470.101,13.32,0.037,110.4
2019-06-11T03:28:10,42.805,6.029,0.03,-0.005,-0.009,102.0,106.0,98.0,13.4,1505.3,325.8,-0.7,1.8,2470.123,13.32,0.03,99.5
2019-06-11T03:31:11,42.805,6.029,0.036,-0.018,-0.036,102.0,108.0,98.0,13.4,1505.3,325.1,-0.7,1.9,2470.128,13.32,0.04,116.6
2019-06-11T03:34:12,42.805,6.029,0.041,0.018,-0.016,101.0,110.0,99.0,13.4,1505.3,327.6,-0.7,1.8,2470.148,13.32,0.044,66.3
2019-06-11T03:37:13,42.805,6.029,0.057,0.002,-0.015,101.0,108.0,99.0,13.4,1505.3,324.1,-0.8,1.8,2470.101,13.32,0.057,88.0
2019-06-11T03:40:14,42.805,6.029,0.023,-0.008,-0.002,102.0,105.0,98.0,13.4,1505.3,324.2,-0.7,1.8,2470.133,13.32,0.024,109.2
2019-06-11T03:43:15,42.805,6.029,0.028,-0.005,-0.021,100.0,107.0,99.0,13.4,1505.3,328.0,-0.7,1.9,2470.108,13.32,0.028,100.1
2019-06-11T03:46:16,42.805,6.029,0.052,0.011,0.003,101.0,110.0,98.0,13.4,1505.3,323.0,-0.7,1.8,2470.088,13.32,0.053,78.1
2019-06-11T03:49:17,42.805,6.029,0.045,-0.001,-0.042,102.0,107.0,99.0,13.4,1505.3,326.9,-0.7,1.8,2470.12,13.32,0.045,91.3
2019-06-11T03:52:18,42.805,6.029,0.043,-0.016,-0.007,103.0,108.0,99.0,13.4,1505.3,325.4,-0.8,1.8,2470.125,13.32,0.045,110.4
2019-06-11T03:55:19,42.805,6.029,0.027,0.011,-0.027,102.0,108.0,97.0,13.4,1505.3,327.8,-0.7,1.8,2470.106,13.32,0.029,67.8
2019-06-11T03:58:20,42.805,6.029,0.035,0.015,-0.015,102.0,110.0,97.0,13.4,1505.3,322.4,-0.7,1.8,2470.111,13.32,0.038,66.8
2019-06-11T04:01:21,42.805,6.029,0.048,-0.002,0.004,103.0,108.0,98.0,13.4,1505.3,326.3,-0.7,1.8,2470.099,13.32,0.048,92.4
2019-06-11T04:04:22,42.805,6.029,0.044,-0.001,0.0,103.0,105.0,98.0,13.4,1505.3,324.2,-0.7,1.8,2470.093,13.32,0.044,91.3
2019-06-11T04:07:23,42.805,6.029,0.065,-0.009,-0.006,102.0,110.0,98.0,13.4,1505.3,327.5,-0.7,1.8,2470.1,13.32,0.065,97.9
2019-06-11T04:10:24,42.805,6.029,0.048,0.005,-0.016,102.0,111.0,97.0,13.3,1505.3,324.7,-0.8,1.8,2470.135,13.32,0.048,84.1
2019-06-11T04:13:25,42.805,6.029,0.015,0.0,-0.023,101.0,107.0,99.0,13.4,1505.3,324.0,-0.7,1.8,2470.109,13.32,0.015,90.0
2019-06-11T04:16:26,42.805,6.029,0.043,0.008,-0.029,101.0,106.0,98.0,13.4,1505.3,324.2,-0.8,1.8,2470.081,13.32,0.043,79.5
2019-06-11T04:19:27,42.805,6.029,0.043,-0.01,-0.032,102.0,106.0,99.0,13.4,1505.3,328.1,-0.7,1.9,2470.137,13.32,0.044,103.1
2019-06-11T04:22:28,42.805,6.029,0.035,-0.003,-0.044,101.0,108.0,98.0,13.3,1505.3,323.3,-0.7,1.8,2470.079,13.32,0.035,94.9
2019-06-11T04:25:29,42.805,6.029,0.049,-0.006,-0.009,101.0,108.0,97.0,13.3,1505.3,326.3,-0.7,1.8,2470.128,13.32,0.049,97.0
2019-06-11T04:28:30,42.805,6.029,0.034,-0.003,-0.01,101.0,108.0,99.0,13.4,1505.3,327.2,-0.7,1.9,2470.105,13.32,0.034,95.0
2019-06-11T04:31:31,42.805,6.029,0.022,-0.005,-0.009,101.0,109.0,98.0,13.4,1505.3,326.5,-0.7,1.9,2470.103,13.32,0.022,102.8
2019-06-11T04:34:32,42.805,6.029,0.051,-0.008,-0.017,102.0,109.0,98.0,13.4,1505.3,324.5,-0.7,1.8,2470.109,13.32,0.051,98.9
2019-06-11T04:37:33,42.805,6.029,0.064,0.0,-0.038,101.0,110.0,98.0,13.4,1505.3,326.0,-0.8,1.8,2470.081,13.32,0.063,90.0
2019-06-11T04:40:34,42.805,6.029,0.04,0.003,-0.021,100.0,109.0,98.0,13.3,1505.3,328.4,-0.8,1.9,2470.093,13.32,0.04,85.7
2019-06-11T04:43:35,42.805,6.029,0.028,-0.001,0.003,101.0,111.0,97.0,13.4,1505.3,322.4,-0.7,1.8,2470.123,13.32,0.028,92.0
2019-06-11T04:46:36,42.805,6.029,0.051,0.01,-0.001,100.0,109.0,99.0,13.4,1505.3,326.3,-0.8,1.8,2470.141,13.32,0.051,78.9
2019-06-11T04:49:37,42.805,6.029,0.037,0.001,-0.02,103.0,109.0,98.0,13.4,1505.3,324.7,-0.8,1.8,2470.089,13.32,0.037,88.5
2019-06-11T04:52:38,42.805,6.029,0.049,0.0,-0.022,101.0,107.0,98.0,13.4,1505.3,326.7,-0.7,1.9,2470.069,13.32,0.049,90.0
2019-06-11T04:55:39,42.805,6.029,0.028,-0.005,-0.026,102.0,109.0,98.0,13.4,1505.3,323.5,-0.7,1.8,2470.073,13.32,0.028,100.1
2019-06-11T04:58:40,42.805,6.029,0.045,-0.018,-0.012,101.0,109.0,98.0,13.4,1505.3,325.7,-0.7,1.8,2470.088,13.32,0.048,111.8
2019-06-11T05:01:41,42.805,6.029,0.026,0.018,-0.032,102.0,110.0,98.0,13.4,1505.3,324.4,-0.7,1.8,2470.128,13.32,0.031,55.3
2019-06-11T05:04:42,42.805,6.029,0.056,0.004,0.004,101.0,107.0,98.0,13.4,1505.3,327.7,-0.7,1.8,2470.094,13.32,0.056,85.9
2019-06-11T05:07:43,42.805,6.029,0.044,-0.009,-0.051,101.0,108.0,98.0,13.4,1505.3,323.3,-0.7,1.9,2470.061,13.32,0.044,101.6
2019-06-11T05:10:44,42.805,6.029,0.052,0.003,-0.076,103.0,110.0,97.0,13.4,1505.3,326.3,-0.7,1.8,2470.069,13.32,0.052,86.7
2019-06-11T05:13:45,42.805,6.029,0.038,0.006,-0.042,101.0,110.0,98.0,13.3,1505.3,324.9,-0.7,1.8,2470.092,13.32,0.038,81.0
2019-06-11T05:16:46,42.805,6.029,0.049,0.0,-0.011,101.0,110.0,98.0,13.3,1505.3,325.9,-0.7,1.8,2470.105,13.32,0.049,90.0
2019-06-11T05:19:47,42.805,6.029,0.034,0.007,0.01,100.0,108.0,97.0,13.3,1505.3,323.5,-0.8,1.8,2470.121,13.32,0.034,78.4
2019-06-11T05:22:48,42.805,6.029,0.054,0.015,-0.01,101.0,112.0,98.0,13.4,1505.3,326.0,-0.7,1.8,2470.071,13.32,0.056,74.5
2019-06-11T05:25:49,42.805,6.029,0.036,-0.015,-0.024,101.0,109.0,99.0,13.4,1505.3,325.5,-0.7,1.9,2470.074,13.32,0.039,112.6
2019-06-11T05:28:50,42.805,6.029,0.059,-0.003,-0.014,100.0,110.0,98.0,13.4,1505.3,324.6,-0.8,1.8,2470.071,13.32,0.059,92.9
2019-06-11T05:31:51,42.805,6.029,0.016,-0.015,-0.036,102.0,110.0,98.0,13.4,1505.3,323.3,-0.7,1.9,2470.082,13.32,0.021,133.1
2019-06-11T05:34:52,42.805,6.029,0.037,-0.006,-0.055,101.0,112.0,97.0,13.4,1505.3,322.5,-0.7,1.9,2470.087,13.32,0.037,99.2
2019-06-11T05:37:53,42.805,6.029,0.047,0.005,0.004,102.0,111.0,97.0,13.4,1505.3,325.7,-0.7,1.9,2470.091,13.32,0.047,83.9
2019-06-11T05:40:54,42.805,6.029,0.049,-0.008,-0.024,101.0,111.0,98.0,13.4,1505.3,326.1,-0.8,1.8,2470.109,13.32,0.049,99.3
2019-06-11T05:43:55,42.805,6.029,0.026,0.004,-0.05,101.0,112.0,98.0,13.4,1505.3,326.9,-0.7,1.9,2470.007,13.32,0.026,81.3
2019-06-11T05:46:56,42.805,6.029,0.042,0.008,-0.006,101.0,107.0,98.0,13.4,1505.3,325.6,-0.8,1.8,2470.043,13.32,0.042,79.2
2019-06-11T05:49:57,42.805,6.029,0.036,-0.001,-0.024,101.0,110.0,98.0,13.4,1505.3,323.9,-0.7,1.8,2470.068,13.32,0.036,91.6
2019-06-11T05:52:58,42.805,6.029,0.044,0.013,-0.006,101.0,111.0,98.0,13.4,1505.3,326.3,-0.8,1.9,2470.04,13.32,0.045,73.5
2019-06-11T05:55:59,42.805,6.029,0.053,0.016,0.011,102.0,110.0,98.0,13.4,1505.3,325.0,-0.7,1.9,2470.044,13.32,0.055,73.2
2019-06-11T05:59:00,42.805,6.029,0.051,0.02,-0.015,103.0,109.0,98.0,13.4,1505.3,325.5,-0.7,1.8,2470.023,13.32,0.054,68.6
2019-06-11T06:02:01,42.805,6.029,0.046,-0.007,-0.028,101.0,107.0,98.0,13.4,1505.3,324.3,-0.8,1.9,2470.053,13.32,0.046,98.7
2019-06-11T06:05:02,42.805,6.029,0.022,0.021,-0.038,102.0,110.0,99.0,13.4,1505.3,325.3,-0.7,1.9,2470.059,13.32,0.03,46.3
2019-06-11T06:08:03,42.805,6.029,0.036,0.001,-0.008,102.0,111.0,98.0,13.4,1505.3,327.0,-0.8,1.9,2470.03,13.32,0.036,88.4
2019-06-11T06:11:04,42.805,6.029,0.047,-0.006,-0.008,101.0,110.0,99.0,13.4,1505.3,325.8,-0.8,1.8,2470.065,13.32,0.047,97.3
2019-06-11T06:14:05,42.805,6.029,0.03,0.007,-0.016,103.0,108.0,99.0,13.3,1505.3,324.5,-0.7,1.9,2469.999,13.32,0.03,76.9
2019-06-11T06:17:06,42.805,6.029,0.026,0.016,-0.01,102.0,110.0,97.0,13.4,1505.3,327.5,-0.8,1.9,2470.037,13.32,0.03,58.4
2019-06-11T06:20:07,42.805,6.029,0.052,-0.007,-0.019,100.0,111.0,98.0,13.3,1505.3,323.0,-0.8,1.8,2470.079,13.32,0.052,97.7
2019-06-11T06:23:08,42.805,6.029,0.052,0.021,0.0,102.0,111.0,97.0,13.4,1505.3,326.5,-0.7,1.9,2470.028,13.32,0.056,68.0
2019-06-11T06:26:09,42.805,6.029,0.052,-0.016,-0.019,101.0,111.0,97.0,13.3,1505.3,324.3,-0.8,1.8,2470.03,13.32,0.054,107.1
2019-06-11T06:29:10,42.805,6.029,0.043,0.003,-0.03,101.0,113.0,98.0,13.4,1505.3,328.2,-0.7,1.8,2470.009,13.32,0.043,86.0
2019-06-11T06:32:11,42.805,6.029,0.043,-0.013,-0.044,101.0,111.0,97.0,13.4,1505.3,325.8,-0.7,1.9,2470.029,13.32,0.044,106.8
2019-06-11T06:35:12,42.805,6.029,0.06,-0.008,-0.016,102.0,110.0,98.0,13.3,1505.3,324.3,-0.7,1.8,2470.006,13.32,0.06,97.6
2019-06-11T06:38:13,42.805,6.029,0.052,-0.011,-0.017,101.0,113.0,99.0,13.4,1505.3,327.6,-0.8,1.8,2470.045,13.32,0.053,101.9
2019-06-11T06:41:14,42.805,6.029,0.033,0.013,-0.014,101.0,109.0,98.0,13.4,1505.3,323.3,-0.7,1.8,2469.987,13.32,0.035,68.5
2019-06-11T06:44:15,42.805,6.029,0.054,0.011,-0.04,103.0,113.0,97.0,13.3,1505.3,325.8,-0.7,1.8,2470.015,13.32,0.055,78.5
2019-06-11T06:47:16,42.805,6.029,0.045,0.001,-0.015,101.0,109.0,98.0,13.4,1505.3,327.9,-0.7,1.8,2470.006,13.32,0.045,88.7
2019-06-11T06:50:17,42.805,6.029,0.044,0.0,-0.01,102.0,113.0,97.0,13.4,1505.3,323.4,-0.8,1.9,2469.971,13.32,0.044,90.0
2019-06-11T06:53:18,42.805,6.029,0.03,0.005,-0.028,101.0,111.0,97.0,13.4,1505.3,326.7,-0.7,1.8,2470.012,13.32,0.03,80.5
2019-06-11T06:56:19,42.805,6.029,0.02,-0.006,-0.021,102.0,112.0,97.0,13.4,1505.3,326.7,-0.8,1.9,2469.999,13.32,0.02,106.7
2019-06-11T06:59:20,42.805,6.029,0.039,0.002,-0.03,101.0,110.0,99.0,13.4,1505.3,324.4,-0.7,1.8,2469.991,13.32,0.039,87.1
2019-06-11T07:02:21,42.805,6.029,0.025,-0.003,-0.026,101.0,109.0,99.0,13.3,1505.3,326.5,-0.7,1.8,2469.998,13.32,0.025,96.8
2019-06-11T07:05:22,42.805,6.029,0.049,0.002,0.002,102.0,114.0,97.0,13.3,1505.3,325.9,-0.7,1.9,2470.032,13.32,0.049,87.7
2019-06-11T07:08:23,42.805,6.029,0.034,-0.001,-0.012,99.0,112.0,97.0,13.3,1505.3,324.0,-0.7,1.8,2469.995,13.32,0.034,91.7
2019-06-11T07:11:24,42.805,6.029,0.034,0.004,-0.018,101.0,112.0,98.0,13.4,1505.3,326.1,-0.7,1.9,2470.004,13.32,0.034,83.3
2019-06-11T07:14:25,42.805,6.029,0.026,0.005,-0.031,102.0,117.0,98.0,13.4,1505.3,326.8,-0.8,1.8,2470.021,13.32,0.026,79.1
2019-06-11T07:17:26,42.805,6.029,0.037,0.006,-0.036,102.0,111.0,97.0,13.4,1505.3,325.1,-0.8,1.8,2470.003,13.32,0.037,80.8
2019-06-11T07:20:27,42.805,6.029,0.041,0.016,-0.003,101.0,111.0,97.0,13.4,1505.3,324.5,-0.7,1.8,2469.995,13.32,0.044,68.7
2019-06-11T07:23:28,42.805,6.029,0.032,0.007,-0.009,102.0,112.0,98.0,13.4,1505.3,327.6,-0.7,1.8,2470.011,13.32,0.032,77.7
2019-06-11T07:26:29,42.805,6.029,0.022,0.008,-0.004,101.0,113.0,99.0,13.4,1505.3,325.2,-0.7,1.9,2470.024,13.32,0.023,70.0
2019-06-11T07:29:30,42.805,6.029,0.039,0.013,0.012,100.0,110.0,98.0,13.4,1505.3,325.9,-0.7,1.8,2469.982,13.32,0.041,71.6
2019-06-11T07:32:31,42.805,6.029,0.034,-0.007,-0.045,101.0,112.0,98.0,13.4,1505.3,324.2,-0.8,1.8,2470.019,13.32,0.034,101.6
2019-06-11T07:35:32,42.805,6.029,0.05,0.012,-0.014,100.0,110.0,99.0,13.4,1505.3,326.4,-0.7,1.8,2469.953,13.32,0.051,76.5
2019-06-11T07:38:33,42.805,6.029,0.047,-0.006,-0.028,101.0,112.0,98.0,13.4,1505.3,325.8,-0.8,1.9,2469.975,13.32,0.047,97.3
2019-06-11T07:41:34,42.805,6.029,0.034,0.011,-0.028,99.0,112.0,98.0,13.4,1505.3,325.9,-0.8,1.8,2469.962,13.32,0.035,72.1
2019-06-11T07:44:35,42.805,6.029,0.051,-0.004,-0.024,100.0,113.0,98.0,13.4,1505.3,324.6,-0.8,1.8,2470.01,13.32,0.051,94.5
2019-06-11T07:47:36,42.805,6.029,0.021,0.024,-0.022,102.0,113.0,98.0,13.4,1505.3,328.3,-0.7,1.9,2469.938,13.32,0.031,41.2
2019-06-11T07:50:37,42.805,6.029,0.034,0.027,-0.016,101.0,113.0,98.0,13.4,1505.3,324.3,-0.8,1.9,2469.989,13.32,0.043,51.5
2019-06-11T07:53:38,42.805,6.029,0.029,0.006,-0.026,101.0,111.0,97.0,13.4,1505.3,325.7,-0.8,1.9,2469.952,13.32,0.029,78.3
2019-06-11T07:56:39,42.805,6.029,0.039,0.023,0.004,101.0,113.0,97.0,13.4,1505.3,324.7,-0.8,1.9,2469.974,13.32,0.045,59.5
2019-06-11T07:59:40,42.805,6.029,0.019,0.016,-0.037,103.0,116.0,98.0,13.4,1505.3,327.4,-0.7,1.8,2469.965,13.32,0.024,49.9
2019-06-11T08:02:41,42.805,6.029,0.033,0.017,-0.021,101.0,112.0,97.0,13.4,1505.3,326.1,-0.7,1.8,2469.992,13.32,0.037,62.7
2019-06-11T08:05:42,42.805,6.029,0.028,-0.001,-0.005,101.0,113.0,98.0,13.4,1505.3,325.8,-0.7,1.8,2469.962,13.32,0.028,92.0
2019-06-11T08:08:43,42.805,6.029,0.06,0.013,-0.01,103.0,113.0,98.0,13.4,1505.3,324.6,-0.7,1.9,2469.974,13.32,0.061,77.8
2019-06-11T08:11:44,42.805,6.029,0.042,-0.002,0.009,100.0,112.0,99.0,13.4,1505.3,324.6,-0.8,1.8,2469.945,13.32,0.042,92.7
2019-06-11T08:14:45,42.805,6.029,0.041,0.003,-0.017,99.0,116.0,99.0,13.4,1505.3,324.5,-0.7,1.9,2469.974,13.32,0.041,85.8
2019-06-11T08:17:46,42.805,6.029,0.046,0.015,-0.028,101.0,113.0,97.0,13.3,1505.3,324.8,-0.8,1.9,2469.934,13.32,0.048,71.9
2019-06-11T08:20:47,42.805,6.029,0.061,0.004,-0.01,102.0,112.0,98.0,13.4,1505.3,326.4,-0.7,1.9,2469.971,13.32,0.061,86.3
2019-06-11T08:23:48,42.805,6.029,0.039,-0.003,-0.031,101.0,115.0,98.0,13.4,1505.3,324.4,-0.7,1.9,2469.946,13.32,0.039,94.4
2019-06-11T08:26:49,42.805,6.029,0.048,0.021,-0.052,100.0,114.0,97.0,13.4,1505.3,325.0,-0.7,1.8,2469.979,13.32,0.052,66.4
2019-06-11T08:29:50,42.805,6.029,0.039,0.013,0.013,101.0,113.0,98.0,13.3,1505.3,326.3,-0.8,1.9,2470.001,13.32,0.041,71.6
2019-06-11T08:32:51,42.805,6.029,0.039,0.013,-0.008,100.0,112.0,98.0,13.4,1505.3,326.4,-0.7,1.8,2469.934,13.32,0.041,71.6
2019-06-11T08:35:52,42.805,6.029,0.041,0.013,-0.03,102.0,117.0,98.0,13.4,1505.3,326.0,-0.8,1.9,2469.95,13.32,0.043,72.4
2019-06-11T08:38:53,42.805,6.029,0.052,-0.01,-0.023,101.0,112.0,98.0,13.4,1505.3,325.8,-0.7,1.8,2469.961,13.32,0.052,100.9
2019-06-11T08:41:54,42.805,6.029,0.032,0.034,-0.001,100.0,116.0,97.0,13.3,1505.3,326.4,-0.8,1.9,2469.94,13.32,0.046,43.3
2019-06-11T08:44:55,42.805,6.029,0.026,0.008,-0.02,100.0,113.0,97.0,13.4,1505.3,325.9,-0.7,1.9,2469.963,13.32,0.027,72.9
2019-06-11T08:47:56,42.805,6.029,0.053,-0.002,-0.009,102.0,113.0,97.0,13.4,1505.3,324.6,-0.7,1.8,2469.98,13.32,0.053,92.2
2019-06-11T08:50:57,42.805,6.029,0.027,0.009,-0.016,99.0,114.0,99.0,13.4,1505.3,325.5,-0.7,1.8,2469.934,13.32,0.028,71.6
2019-06-11T08:53:58,42.805,6.029,0.03,-0.006,-0.045,102.0,118.0,98.0,13.4,1505.3,323.6,-0.7,1.9,2469.954,13.32,0.03,101.3
2019-06-11T08:56:59,42.805,6.029,0.039,0.002,-0.019,102.0,114.0,98.0,13.4,1505.3,326.5,-0.8,1.9,2469.909,13.32,0.039,87.1
2019-06-11T09:00:00,42.805,6.029,0.014,0.006,-0.037,102.0,112.0,98.0,13.3,1505.3,324.3,-0.7,1.8,2469.936,13.32,0.015,66.8
2019-06-11T09:03:01,42.805,6.029,0.037,-0.002,0.001,100.0,113.0,98.0,13.3,1505.3,327.3,-0.7,1.9,2469.967,13.32,0.037,93.1
2019-06-11T09:06:02,42.805,6.029,0.045,0.009,-0.008,101.0,116.0,98.0,13.4,1505.3,323.3,-0.7,1.9,2469.979,13.32,0.045,78.7
2019-06-11T09:09:03,42.805,6.029,0.035,0.008,-0.006,101.0,114.0,98.0,13.4,1505.3,325.8,-0.8,1.9,2469.945,13.32,0.035,77.1
2019-06-11T09:12:04,42.805,6.029,0.054,0.019,-0.038,101.0,113.0,97.0,13.3,1505.3,323.2,-0.7,1.9,2469.96,13.32,0.057,70.6
2019-06-11T09:15:05,42.805,6.029,0.037,-0.025,-0.041,100.0,113.0,98.0,13.4,1505.3,326.7,-0.7,1.9,2470.008,13.32,0.044,124.0
2019-06-11T09:18:06,42.805,6.029,0.061,0.012,-0.024,101.0,114.0,97.0,13.3,1505.3,325.5,-0.7,1.8,2469.957,13.32,0.062,78.9
2019-06-11T09:21:07,42.805,6.029,0.021,0.02,-0.009,100.0,116.0,98.0,13.4,1505.3,324.7,-0.8,1.9,2469.945,13.32,0.028,46.4
2019-06-11T09:24:08,42.805,6.029,0.039,-0.004,-0.015,102.0,112.0,98.0,13.4,1505.3,327.5,-0.7,1.8,2469.92,13.32,0.039,95.9
2019-06-11T09:27:09,42.805,6.029,0.048,0.006,-0.018,101.0,113.0,99.0,13.4,1505.3,322.7,-0.7,1.8,2469.979,13.32,0.048,82.9
2019-06-11T09:30:10,42.805,6.029,0.046,0.016,-0.022,99.0,113.0,99.0,13.4,1505.3,325.1,-0.7,1.9,2469.952,13.32,0.048,70.8
2019-06-11T09:33:11,42.805,6.029,0.061,0.012,-0.032,99.0,115.0,97.0,13.4,1505.3,325.8,-0.8,1.8,2469.936,13.32,0.062,78.9
2019-06-11T09:36:12,42.805,6.029,0.046,0.017,-0.036,100.0,117.0,97.0,13.4,1505.3,328.2,-0.8,1.8,2470.014,13.32,0.049,69.7
2019-06-11T09:39:13,42.805,6.029,0.036,0.008,-0.064,100.0,113.0,98.0,13.4,1505.3,323.2,-0.7,1.8,2469.926,13.32,0.036,77.5
2019-06-11T09:42:14,42.805,6.029,0.054,0.016,-0.026,100.0,111.0,98.0,13.4,1505.3,325.8,-0.7,1.8,2469.97,13.32,0.056,73.5
2019-06-11T09:45:15,42.805,6.029,0.05,0.008,-0.017,100.0,114.0,98.0,13.3,1505.3,328.2,-0.7,1.8,2469.946,13.32,0.05,80.9